GW2336 Weather Reports


time (UTC)temp
C
wind
direction
speed
KPH
gust
KPH
rain 1hr
cm
rain 24hr
cm
rain mn
cm
humidity
%
barometer
mb
20260507200054 29 61 12.9 35.4 0.00 0.00 0.00 14 1014.2
20260507190032 28 80 8.0 17.7 0.00 0.00 0.00 15 1015.4
20260507180056 27 317 9.7 20.9 0.00 0.00 0.00 18 1017.0
20260507170053 26 288 3.2 11.3 0.00 0.00 0.00 19 1017.6
20260507160106 23 103 6.4 14.5 0.00 0.00 0.00 22 1018.4
20260507150056 21 153 1.6 8.0 0.00 0.00 0.00 29 1018.7
20260507140105 16 120 1.6 6.4 0.00 0.00 0.00 41 1018.6
20260507130100 11 155 0.0 3.2 0.00 0.00 0.00 50 1018.4
20260507120116 12 38 0.0 3.2 0.00 0.00 0.00 48 1017.6
20260507110113 14 38 1.6 4.8 0.00 0.00 0.00 41 1017.3
20260507100112 14 135 0.0 0.0 0.00 0.00 0.00 43 1017.1
20260507090115 15 113 0.0 6.4 0.00 0.00 0.00 32 1017.0
20260507080109 18 115 0.0 0.0 0.00 0.00 0.00 26 1017.4
20260507070030 21 109 1.6 6.4 0.00 0.00 0.00 27 1017.6
20260507060031 22 85 4.8 9.7 0.00 0.00 0.00 26 1017.0
20260507050032 24 133 9.7 22.5 0.00 0.00 0.00 20 1016.7
20260507040030 21 67 3.2 6.4 0.00 0.00 0.00 29 1015.5
20260507030028 21 295 0.0 4.8 0.00 0.00 0.00 34 1014.3
20260507020032 26 302 0.0 0.0 0.00 0.00 0.00 24 1013.5
20260507010030 27 303 1.6 9.7 0.00 0.00 0.00 19 1013.1
20260507000030 28 298 8.0 17.7 0.00 0.00 0.00 16 1012.7
20260506230029 30 340 8.0 17.7 0.00 0.00 0.00 17 1012.7
20260506220034 29 300 8.0 19.3 0.00 0.00 0.00 17 1012.9
20260506210029 28 305 6.4 16.1 0.00 0.00 0.00 17 1013.8